TimeEST,TemperatureF,Dew PointF,Humidity,Sea Level PressureIn,VisibilityMPH,Wind Direction,Wind SpeedMPH,Gust SpeedMPH,PrecipitationIn,Events,Conditions,WindDirDegrees,DateUTC
12:55 AM,50.4,45.7,84,29.60,10.0,SW,11.5,20.7,N/A,,Partly Cloudy,220,2011-12-16 05:55:00
1:55 AM,48.6,45.3,89,29.61,10.0,SW,6.9,-,N/A,,Partly Cloudy,230,2011-12-16 06:55:00
2:55 AM,48.9,46.0,90,29.60,10.0,SW,5.8,-,N/A,,Mostly Cloudy,220,2011-12-16 07:55:00
3:55 AM,49.8,46.8,89,29.59,10.0,SW,5.8,-,N/A,,Overcast,230,2011-12-16 08:55:00
4:01 AM,50.0,46.4,87,29.59,7.0,WSW,5.8,-,N/A,Rain,Light Rain Showers,240,2011-12-16 09:01:00
4:55 AM,49.1,42.8,79,29.60,10.0,WSW,15.0,19.6,0.01,Rain,Light Rain Showers,240,2011-12-16 09:55:00
5:07 AM,50.0,41.0,71,29.60,10.0,WSW,19.6,27.6,N/A,,Overcast,240,2011-12-16 10:07:00
5:55 AM,49.3,35.4,59,29.63,10.0,West,16.1,25.3,N/A,,Mostly Cloudy,270,2011-12-16 10:55:00
6:55 AM,48.0,34.2,59,29.69,10.0,West,15.0,24.2,N/A,,Scattered Clouds,270,2011-12-16 11:55:00
7:55 AM,47.7,32.7,56,29.73,10.0,West,12.7,-,N/A,,Scattered Clouds,270,2011-12-16 12:55:00
8:55 AM,47.5,30.2,51,29.77,10.0,West,20.7,33.4,N/A,,Partly Cloudy,280,2011-12-16 13:55:00
9:55 AM,48.2,28.4,46,29.81,10.0,West,16.1,24.2,N/A,,Partly Cloudy,260,2011-12-16 14:55:00
10:55 AM,49.6,28.2,44,29.81,-9999.0,West,21.9,32.2,N/A,,Scattered Clouds,270,2011-12-16 15:55:00
11:55 AM,50.7,28.0,42,29.83,10.0,WNW,15.0,31.1,N/A,,Scattered Clouds,290,2011-12-16 16:55:00
12:55 PM,47.8,27.7,46,29.87,10.0,WNW,24.2,39.1,N/A,,Scattered Clouds,300,2011-12-16 17:55:00
1:55 PM,48.2,26.8,43,29.91,10.0,WNW,18.4,25.3,N/A,,Mostly Cloudy,300,2011-12-16 18:55:00
2:55 PM,45.1,25.3,46,29.96,10.0,NW,13.8,21.9,N/A,,Mostly Cloudy,310,2011-12-16 19:55:00
3:55 PM,43.2,24.4,48,29.98,10.0,WNW,15.0,-,N/A,,Mostly Cloudy,300,2011-12-16 20:55:00
4:55 PM,42.1,24.1,49,30.00,10.0,NW,10.4,-,N/A,,Mostly Cloudy,310,2011-12-16 21:55:00
5:55 PM,40.5,24.4,53,30.01,10.0,WNW,9.2,-,N/A,,Mostly Cloudy,300,2011-12-16 22:55:00
6:55 PM,37.4,24.4,60,30.04,10.0,WNW,4.6,-,N/A,,Scattered Clouds,300,2011-12-16 23:55:00
7:55 PM,37.4,24.3,59,30.05,10.0,WNW,4.6,-,N/A,,Scattered Clouds,290,2011-12-17 00:55:00
8:55 PM,37.6,25.0,60,30.04,10.0,WNW,6.9,-,N/A,,Mostly Cloudy,300,2011-12-17 01:55:00
9:55 PM,36.9,24.8,62,30.04,10.0,WNW,6.9,-,N/A,,Mostly Cloudy,290,2011-12-17 02:55:00
10:55 PM,37.2,25.2,62,30.05,10.0,West,8.1,-,N/A,,Mostly Cloudy,280,2011-12-17 03:55:00
11:55 PM,36.7,25.3,64,30.03,10.0,West,5.8,-,N/A,,Mostly Cloudy,260,2011-12-17 04:55:00